Location: Recife
(8.0585°S, 34.8848°W)
Time: 10:57:53
(UTC-03:00)

Courier 1B Rocket - Pass Details

Date: 16 April 2026
Orbit: 920 x 1201 km, 28.2° (Epoch: 13 May)

Event Time Altitude Azimuth Distance (km) Brightness Sun altitude
Rises 15:08:45 0° 255° (WSW) 4,090 9.1 30.0°
Reaches altitude 10° 15:11:48 10° 262° (W) 3,130 8.9 29.3°
Maximum altitude 15:19:01 40° 329° (NNW) 1,676 7.3 27.6°
Drops below altitude 10° 15:26:03 10° 36° (NE) 3,049 7.5 25.9°
Sets 15:29:01 0° 43° (NE) 3,974 7.9 25.2°
